CAPE
0 41 938 1039 707 751 632 599 668 531 384 138 63 32 6 94 138 114 153 116 123 46 31 35 47 98 74 65 44 55 61 61 63 83 83 85 60 51 40 45 57 15 67
0 128 938 1106 1059 1161 1110 1012 832 595 398 278 168 120 66 179 122 71 278 162 158 90 78 85 87 70 63 53 44 43 37 33 53 64 59 66 65 65 54 62 92 20 63
0 261 687 1041 1182 1235 1226 1091 935 692 455 505 535 389 230 163 166 90 142 150 112 82 74 48 48 31 33 37 43 41 36 30 52 50 44 14 17 75 58 50 58 14 38
31 489 504 1047 1259 1268 1212 1042 1005 761 616 642 722 568 372 362 204 109 79 110 54 51 45 25 28 34 31 37 44 30 22 49 47 17 13 8 46 51 52 28 64 26 57
220 484 420 1107 1335 1178 1101 962 1036 900 803 813 766 608 548 488 186 58 38 64 69 14 65 62 47 66 72 56 40 46 40 36 29 16 26 7 30 58 66 37 30 24 35
349 417 573 1066 1303 1049 934 887 1066 958 972 859 730 636 546 523 232 73 63 75 52 71 63 31 43 71 87 64 54 28 33 30 7 7 0 33 27 45 40 48 33 24 21
386 375 741 1129 1267 983 1013 921 1013 967 986 820 756 728 579 464 110 18 41 21 33 20 40 31 29 35 52 54 53 22 42 16 3 12 20 9 33 19 40 31 26 27 16
406 447 784 999 1050 876 967 873 875 933 916 725 732 661 573 322 54 7 18 24 41 28 38 31 37 38 54 52 36 31 32 4 6 11 13 9 47 49 30 27 31 22 31
392 578 750 879 845 690 716 607 694 790 693 590 550 462 255 95 24 9 20 21 30 45 63 57 39 57 75 64 35 24 13 2 1 5 19 28 55 20 31 22 21 25 12
1048 541 693 832 726 599 613 530 498 465 414 310 240 179 46 0 11 15 12 31 34 34 53 65 35 35 55 41 21 0 0 0 0 3 12 20 19 19 18 13 7 9 10
551 448 918 681 693 460 421 410 430 405 319 237 161 72 19 0 5 0 0 15 27 33 42 43 15 25 31 6 0 0 0 0 0 1 7 44 9 15 18 17 10 11 12
303 815 538 843 587 395 266 307 325 285 218 114 62 5 1 5 0 0 3 8 13 22 31 42 7 0 0 0 0 0 0 0 0 0 5 16 20 10 10 12 13 9 7
286 251 137 463 716 598 152 242 270 225 168 71 29 0 0 0 0 0 0 3 4 0 7 13 1 0 0 0 0 0 0 0 0 0 2 3 23 16 11 8 8 8 6
123 98 176 220 228 437 362 176 172 137 98 151 22 0 0 0 0 0 0 0 0 0 0 1 0 0 0 0 0 0 0 0 0 0 0 2 22 12 9 7 7 6 4
182 175 94 193 81 207 381 323 195 119 77 155 31 0 0 0 0 0 0 0 0 0 0 0 0 0 0 0 0 0 0 0 0 0 0 1 10 14 10 7 6 5 4
109 14 184 138 224 193 146 443 267 87 125 141 31 0 0 0 0 0 0 0 0 0 0 0 0 0 0 0 0 0 0 0 0 0 0 0 2 9 8 5 8 6 4
5 177 169 200 208 67 142 246 299 346 97 85 6 4 0 0 0 0 0 0 0 0 0 0 0 0 0 0 0 0 0 0 0 0 0 0 0 0 6 10 10 7 4
0 43 46 219 33 55 188 240 385 380 439 142 0 0 3 0 0 0 0 0 0 0 0 0 0 0 0 0 0 0 0 0 0 0 0 0 0 0 0 4 8 7 4
0 0 55 169 115 28 61 211 244 252 368 188 23 10 3 12 3 0 0 0 0 0 0 0 0 0 0 0 0 0 0 0 0 0 0 0 0 0 0 0 0 3 5
0 0 0 82 112 169 171 190 187 284 339 228 36 24 24 29 24 12 0 0 0 0 0 0 0 0 0 0 0 0 0 0 0 0 0 0 0 0 0 0 0 0 0
0 0 0 25 120 171 61 14 43 117 239 109 55 53 54 38 29 22 0 0 0 0 0 0 0 0 0 0 0 0 0 0 0 0 0 0 0 0 0 0 0 0 0
0 0 0 0 99 60 66 39 0 227 168 132 69 91 84 57 21 16 0 0 0 0 0 0 0 0 0 0 0 0 0 0 0 0 0 0 0 0 0 0 0 0 0
0 0 0 0 17 136 56 27 2 177 266 194 100 119 70 75 20 30 14 0 0 0 0 0 0 0 0 0 0 0 0 0 0 0 0 0 0 0 0 0 0 0 0
0 0 0 0 0 87 0 1 6 52 134 26 47 87 104 92 50 39 8 0 0 0 0 0 0 0 0 0 0 0 0 0 0 0 0 0 0 0 0 0 0 0 0
0 0 0 0 0 0 0 0 14 46 1 101 153 101 189 138 43 14 6 0 0 0 0 0 0 0 0 0 0 0 0 0 0 0 0 0 0 0 0 0 0 0 0
0 0 0 0 0 0 0 0 2 69 4 115 166 108 273 191 59 34 62 0 0 0 0 0 0 0 0 0 0 0 0 0 0 0 0 0 0 0 0 0 0 0 0
CIN
-0 -167 -12 -0 -1 -0 -0 -0 -0 -0 -7 -53 -79 -89 -0 -34 -39 -13 -12 -28 -47 -1 -2 -1 -1 -101 -148 -0 -0 -0 -0 -0 -1 -0 -0 -0 -0 -0 -0 -4 -3 -6 -0
-0 -193 -22 -0 -0 -0 -0 -0 -0 -0 -8 -18 -33 -84 -71 -35 -61 -45 -7 -30 -51 -109 -148 -132 -139 -0 -0 -0 -0 -0 -0 -4 -5 -5 -4 -6 -0 -0 -0 -1 -0 -3 -0
-0 -159 -59 -8 -0 -0 -0 -0 -0 -0 -8 -4 -6 -13 -48 -58 -40 -56 -35 -37 -67 -119 -169 -0 -0 -1 -0 -0 -0 -0 -1 -6 -5 -10 -16 -12 -4 -0 -0 -2 -0 -1 -0
-214 -134 -95 -20 -1 -0 -0 -0 -0 -0 -0 -0 -0 -0 -28 -30 -42 -97 -84 -77 -156 -1 -1 -1 -0 -0 -0 -0 -0 -0 -4 -3 -14 -30 -12 -7 -1 -0 -0 -0 -0 -0 -0
-251 -139 -114 -23 -3 -0 -0 -0 -0 -0 -0 -0 -0 -4 -14 -28 -83 -127 -20 -90 -129 -0 -1 -0 -0 -0 -0 -0 -0 -1 -5 -10 -32 -8 -8 -35 -1 -1 -0 -0 -0 -0 -3
-202 -175 -106 -24 -3 -3 -0 -0 -0 -0 -0 -0 -0 -2 -9 -13 -69 -147 -151 -128 -3 -3 -0 -0 -1 -0 -0 -0 -0 -1 -4 -16 -61 -5 -0 -7 -6 -0 -0 -0 -0 -1 -0
-207 -166 -91 -32 -1 -4 -0 -0 -0 -0 -0 -0 -0 -0 -1 -4 -78 -199 -151 -3 -1 -0 -0 -0 -0 -0 -0 -0 -0 -1 -5 -31 -22 -17 -12 -8 -5 -1 -0 -0 -0 -1 -0
-58 -152 -75 -40 -15 -8 -1 -0 -0 -0 -0 -0 -0 -0 -0 -4 -74 -0 -1 -1 -0 -0 -0 -0 -2 -1 -0 -0 -0 -4 -13 -21 -3 -18 -12 -9 -4 -0 -0 -1 -2 -0 -0
-32 -6 -53 -32 -18 -9 -5 -5 -1 -0 -0 -0 -0 -0 -16 -25 -28 -0 -0 -1 -0 -0 -0 -0 -2 -0 -0 -0 -4 -10 -23 -36 -0 -12 -9 -16 -2 -0 -0 -0 -0 -1 -0
-0 -1 -0 -17 -16 -6 -0 -0 -3 -2 -1 -5 -16 -1 -46 -0 -1 -0 -0 -0 -0 -0 -0 -0 -1 -1 -1 -4 -8 -0 -0 -0 -0 -10 -12 -10 -0 -0 -1 -0 -0 -0 -0
-0 -4 -0 -1 -8 -13 -0 -0 -4 -6 -4 -6 -2 -11 -59 -0 -1 -0 -0 -2 -0 -1 -0 -0 -5 -5 -4 -10 -0 -0 -0 -0 -0 -5 -11 -4 -0 -0 -0 -0 -0 -0 -0
-0 -0 -0 -0 -1 -12 -10 -8 -12 -21 -41 -10 -23 -2 -0 -0 -0 -0 -1 -4 -4 -2 -2 -0 -13 -0 -0 -0 -0 -0 -0 -0 -0 -0 -10 -1 -1 -0 -0 -0 -0 -0 -0
-4 -12 -18 -0 -2 -0 -41 -24 -22 -10 -11 -11 -49 -0 -0 -0 -0 -0 -0 -17 -18 -0 -11 -7 -1 -0 -0 -0 -0 -0 -0 -0 -0 -0 -1 -1 -0 -0 -0 -0 -0 -0 -0
-21 -56 -5 -7 -12 -0 -1 -28 -37 -21 -32 -4 -64 -0 -0 -0 -0 -0 -0 -0 -0 -0 -0 -4 -0 -0 -0 -0 -0 -0 -0 -0 -0 -0 -0 -0 -1 -0 -0 -0 -0 -0 -0
-41 -25 -16 -5 -16 -9 -0 -7 -35 -37 -54 -26 -74 -0 -0 -0 -0 -0 -0 -0 -0 -0 -0 -0 -0 -0 -0 -0 -0 -0 -0 -0 -0 -0 -0 -10 -3 -0 -0 -0 -0 -0 -0
-33 -29 -13 -9 -1 -1 -15 -0 -18 -91 -56 -33 -93 -0 -0 -0 -0 -0 -0 -0 -0 -0 -0 -0 -0 -0 -0 -0 -0 -0 -0 -0 -0 -0 -0 -0 -10 -3 -0 -0 -0 -0 -0
-1 -43 -16 -7 -4 -14 -3 -10 -5 -7 -84 -80 -54 -63 -0 -0 -0 -0 -0 -0 -0 -0 -0 -0 -0 -0 -0 -0 -0 -0 -0 -0 -0 -0 -0 -0 -0 -0 -4 -0 -0 -0 -0
-0 -3 -19 -11 -32 -53 -2 -0 -2 -0 -1 -74 -0 -0 -46 -0 -0 -0 -0 -0 -0 -0 -0 -0 -0 -0 -0 -0 -0 -0 -0 -0 -0 -0 -0 -0 -0 -0 -0 -1 -0 -0 -0
-0 -0 -12 -13 -19 -10 -20 -0 -0 -8 -0 -52 -102 -91 -32 -39 -21 -0 -0 -0 -0 -0 -0 -0 -0 -0 -0 -0 -0 -0 -0 -0 -0 -0 -0 -0 -0 -0 -0 -0 -0 -1 -1
-0 -0 -0 -24 -33 -1 -15 -0 -0 -0 -0 -15 -88 -79 -44 -42 -37 -37 -0 -0 -0 -0 -0 -0 -0 -0 -0 -0 -0 -0 -0 -0 -0 -0 -0 -0 -0 -0 -0 -0 -0 -0 -0
-0 -0 -0 -12 -55 -0 -4 -1 -2 -7 -9 -14 -49 -62 -39 -43 -48 -39 -0 -0 -0 -0 -0 -0 -0 -0 -0 -0 -0 -0 -0 -0 -0 -0 -0 -0 -0 -0 -0 -0 -0 -0 -0
-0 -0 -0 -0 -4 -44 -49 -2 -0 -3 -1 -12 -45 -57 -60 -34 -49 -45 -0 -0 -0 -0 -0 -0 -0 -0 -0 -0 -0 -0 -0 -0 -0 -0 -0 -0 -0 -0 -0 -0 -0 -0 -0
-0 -0 -0 -0 -11 -6 -37 -39 -0 -4 -0 -0 -20 -52 -56 -54 -44 -30 -47 -0 -0 -0 -0 -0 -0 -0 -0 -0 -0 -0 -0 -0 -0 -0 -0 -0 -0 -0 -0 -0 -0 -0 -0
-0 -0 -0 -0 -0 -20 -0 -0 -0 -0 -7 -18 -54 -34 -14 -25 -39 -38 -37 -0 -0 -0 -0 -0 -0 -0 -0 -0 -0 -0 -0 -0 -0 -0 -0 -0 -0 -0 -0 -0 -0 -0 -0
-0 -0 -0 -0 -0 -0 -0 -0 -0 -0 -0 -0 -5 -0 -1 -4 -91 -71 -29 -0 -0 -0 -0 -0 -0 -0 -0 -0 -0 -0 -0 -0 -0 -0 -0 -0 -0 -0 -0 -0 -0 -0 -0
-0 -0 -0 -0 -0 -0 -0 -0 -0 -6 -8 -1 -3 -24 -4 -1 -62 -100 -58 -0 -2 -0 -0 -0 -0 -0 -0 -0 -0 -0 -0 -0 -0 -0 -0 -0 -0 -0 -0 -0 -0 -0 -0
Wind_Speed
nan nan 24 22 19 20 23 20 18 19 21 19 nan nan nan nan 23 23 21 20 19 nan nan nan nan nan nan nan nan nan nan nan nan nan nan nan nan nan nan nan nan nan nan
nan 19 25 24 22 20 20 22 19 19 19 21 21 20 nan 20 24 nan 18 18 20 nan nan nan nan nan nan nan nan nan nan nan nan nan nan nan nan nan nan nan nan nan nan
nan 22 26 26 24 23 21 21 22 21 19 20 22 21 20 21 21 nan 20 20 22 nan nan nan nan nan nan nan nan nan nan nan nan nan nan nan nan nan nan nan nan nan nan
nan 21 23 29 28 26 23 24 22 23 24 20 20 23 20 23 23 23 nan 21 nan nan nan nan nan nan nan nan nan nan nan nan nan nan nan nan nan nan nan nan nan nan nan
19 17 20 26 30 29 26 25 24 23 23 23 22 22 22 24 28 nan nan nan nan nan nan nan nan nan nan nan nan nan nan nan nan nan nan nan nan nan nan nan nan nan nan
23 21 20 22 27 28 27 26 25 25 22 24 24 26 25 24 26 nan nan nan nan nan nan nan nan nan nan nan nan nan nan nan nan nan nan nan nan nan nan nan nan nan nan
29 25 24 26 25 28 26 27 27 26 24 24 26 27 28 28 28 nan nan nan nan nan nan nan nan nan nan nan nan nan nan nan nan nan nan nan nan nan nan nan nan nan nan
26 31 28 29 28 28 28 27 29 28 29 24 25 28 30 32 nan nan nan nan nan nan nan nan nan nan nan nan nan nan nan nan nan nan nan nan nan nan nan nan nan nan nan
31 29 30 28 29 28 28 28 28 31 32 29 27 25 31 nan nan nan nan nan nan nan nan nan nan nan nan nan nan nan nan nan nan nan nan nan nan nan nan nan nan nan nan
36 33 32 32 32 30 28 26 27 31 33 32 29 27 nan nan nan nan nan nan nan nan nan nan nan nan nan nan nan nan nan nan nan nan nan nan nan nan nan nan nan nan nan
37 36 37 35 34 35 32 29 29 30 33 33 32 nan nan nan nan nan nan nan nan nan nan nan nan nan nan nan nan nan nan nan nan nan nan nan nan nan nan nan nan nan nan
43 40 42 39 38 38 38 33 32 31 30 31 nan nan nan nan nan nan nan nan nan nan nan nan nan nan nan nan nan nan nan nan nan nan nan nan nan nan nan nan nan nan nan
49 45 46 41 41 41 42 40 36 34 32 nan nan nan nan nan nan nan nan nan nan nan nan nan nan nan nan nan nan nan nan nan nan nan nan nan nan nan nan nan nan nan nan
56 nan 49 49 44 42 45 45 40 37 nan 33 nan nan nan nan nan nan nan nan nan nan nan nan nan nan nan nan nan nan nan nan nan nan nan nan nan nan nan nan nan nan nan
55 56 nan 51 nan 48 46 45 46 41 nan 36 nan nan nan nan nan nan nan nan nan nan nan nan nan nan nan nan nan nan nan nan nan nan nan nan nan nan nan nan nan nan nan
62 nan 61 58 58 50 50 48 49 nan 43 42 nan nan nan nan nan nan nan nan nan nan nan nan nan nan nan nan nan nan nan nan nan nan nan nan nan nan nan nan nan nan nan
nan 69 65 64 52 nan 57 54 51 51 nan nan nan nan nan nan nan nan nan nan nan nan nan nan nan nan nan nan nan nan nan nan nan nan nan nan nan nan nan nan nan nan nan
nan nan nan 68 nan nan 57 64 57 56 56 48 nan nan nan nan nan nan nan nan nan nan nan nan nan nan nan nan nan nan nan nan nan nan nan nan nan nan nan nan nan nan nan
nan nan nan 77 61 nan nan 60 55 60 57 57 nan nan nan nan nan nan nan nan nan nan nan nan nan nan nan nan nan nan nan nan nan nan nan nan nan nan nan nan nan nan nan
nan nan nan nan 82 72 78 74 65 67 61 58 nan nan nan nan nan nan nan nan nan nan nan nan nan nan nan nan nan nan nan nan nan nan nan nan nan nan nan nan nan nan nan
nan nan nan nan 84 84 nan nan nan 67 62 67 nan nan nan nan nan nan nan nan nan nan nan nan nan nan nan nan nan nan nan nan nan nan nan nan nan nan nan nan nan nan nan
nan nan nan nan nan nan nan nan nan 61 68 72 nan nan nan nan nan nan nan nan nan nan nan nan nan nan nan nan nan nan nan nan nan nan nan nan nan nan nan nan nan nan nan
nan nan nan nan nan 97 nan nan nan 66 73 70 61 57 nan nan nan nan nan nan nan nan nan nan nan nan nan nan nan nan nan nan nan nan nan nan nan nan nan nan nan nan nan
nan nan nan nan nan nan nan nan nan nan 55 nan nan nan 59 nan nan nan nan nan nan nan nan nan nan nan nan nan nan nan nan nan nan nan nan nan nan nan nan nan nan nan nan
nan nan nan nan nan nan nan nan nan nan nan 70 73 63 59 51 nan nan nan nan nan nan nan nan nan nan nan nan nan nan nan nan nan nan nan nan nan nan nan nan nan nan nan
nan nan nan nan nan nan nan nan nan nan nan 74 79 63 63 56 nan nan nan nan nan nan nan nan nan nan nan nan nan nan nan nan nan nan nan nan nan nan nan nan nan nan nan
Wind_Direction
nan nan 317 321 328 327 321 314 314 316 316 317 nan nan nan nan 287 281 277 274 273 nan nan nan nan nan nan nan nan nan nan nan nan nan nan nan nan nan nan nan nan nan nan
nan 302 312 312 318 316 317 314 310 315 313 313 311 307 nan 292 291 nan 285 277 276 nan nan nan nan nan nan nan nan nan nan nan nan nan nan nan nan nan nan nan nan nan nan
nan 300 307 309 309 311 309 310 310 312 309 310 312 305 301 295 294 nan 285 275 270 nan nan nan nan nan nan nan nan nan nan nan nan nan nan nan nan nan nan nan nan nan nan
nan 291 297 309 304 306 307 308 308 308 313 313 309 306 301 293 291 284 nan 271 nan nan nan nan nan nan nan nan nan nan nan nan nan nan nan nan nan nan nan nan nan nan nan
283 285 292 303 302 302 301 303 305 305 308 309 307 298 299 293 290 nan nan nan nan nan nan nan nan nan nan nan nan nan nan nan nan nan nan nan nan nan nan nan nan nan nan
277 280 292 303 295 295 299 298 298 299 299 301 303 303 300 296 289 nan nan nan nan nan nan nan nan nan nan nan nan nan nan nan nan nan nan nan nan nan nan nan nan nan nan
280 276 282 298 299 290 290 294 293 294 294 293 300 301 300 296 293 nan nan nan nan nan nan nan nan nan nan nan nan nan nan nan nan nan nan nan nan nan nan nan nan nan nan
242 269 276 289 294 298 292 290 293 291 290 290 290 297 298 292 nan nan nan nan nan nan nan nan nan nan nan nan nan nan nan nan nan nan nan nan nan nan nan nan nan nan nan
247 254 264 270 277 286 294 290 287 288 287 288 285 288 292 nan nan nan nan nan nan nan nan nan nan nan nan nan nan nan nan nan nan nan nan nan nan nan nan nan nan nan nan
251 259 263 262 263 267 268 280 281 281 284 286 283 275 nan nan nan nan nan nan nan nan nan nan nan nan nan nan nan nan nan nan nan nan nan nan nan nan nan nan nan nan nan
258 259 255 262 263 265 262 263 269 275 274 274 272 nan nan nan nan nan nan nan nan nan nan nan nan nan nan nan nan nan nan nan nan nan nan nan nan nan nan nan nan nan nan
239 257 255 253 258 262 259 258 259 263 266 264 nan nan nan nan nan nan nan nan nan nan nan nan nan nan nan nan nan nan nan nan nan nan nan nan nan nan nan nan nan nan nan
247 243 235 254 257 257 257 256 249 254 257 nan nan nan nan nan nan nan nan nan nan nan nan nan nan nan nan nan nan nan nan nan nan nan nan nan nan nan nan nan nan nan nan
259 nan 246 237 254 261 255 256 255 252 nan 257 nan nan nan nan nan nan nan nan nan nan nan nan nan nan nan nan nan nan nan nan nan nan nan nan nan nan nan nan nan nan nan
251 254 nan 248 nan 258 261 259 258 254 nan 254 nan nan nan nan nan nan nan nan nan nan nan nan nan nan nan nan nan nan nan nan nan nan nan nan nan nan nan nan nan nan nan
251 nan 255 247 244 257 257 260 260 nan 253 254 nan nan nan nan nan nan nan nan nan nan nan nan nan nan nan nan nan nan nan nan nan nan nan nan nan nan nan nan nan nan nan
nan 250 251 250 247 nan 259 257 255 256 nan nan nan nan nan nan nan nan nan nan nan nan nan nan nan nan nan nan nan nan nan nan nan nan nan nan nan nan nan nan nan nan nan
nan nan nan 245 nan nan 249 256 246 251 253 247 nan nan nan nan nan nan nan nan nan nan nan nan nan nan nan nan nan nan nan nan nan nan nan nan nan nan nan nan nan nan nan
nan nan nan 243 242 nan nan 214 242 251 247 249 nan nan nan nan nan nan nan nan nan nan nan nan nan nan nan nan nan nan nan nan nan nan nan nan nan nan nan nan nan nan nan
nan nan nan nan 236 230 230 236 242 241 239 244 nan nan nan nan nan nan nan nan nan nan nan nan nan nan nan nan nan nan nan nan nan nan nan nan nan nan nan nan nan nan nan
nan nan nan nan 235 231 nan nan nan 232 238 245 nan nan nan nan nan nan nan nan nan nan nan nan nan nan nan nan nan nan nan nan nan nan nan nan nan nan nan nan nan nan nan
nan nan nan nan nan nan nan nan nan 242 241 238 nan nan nan nan nan nan nan nan nan nan nan nan nan nan nan nan nan nan nan nan nan nan nan nan nan nan nan nan nan nan nan
nan nan nan nan nan 223 nan nan nan 218 230 233 235 233 nan nan nan nan nan nan nan nan nan nan nan nan nan nan nan nan nan nan nan nan nan nan nan nan nan nan nan nan nan
nan nan nan nan nan nan nan nan nan nan 225 nan nan nan 235 nan nan nan nan nan nan nan nan nan nan nan nan nan nan nan nan nan nan nan nan nan nan nan nan nan nan nan nan
nan nan nan nan nan nan nan nan nan nan nan 238 226 231 235 234 nan nan nan nan nan nan nan nan nan nan nan nan nan nan nan nan nan nan nan nan nan nan nan nan nan nan nan
nan nan nan nan nan nan nan nan nan nan nan 244 230 227 230 228 nan nan nan nan nan nan nan nan nan nan nan nan nan nan nan nan nan nan nan nan nan nan nan nan nan nan nan